EW0408 Weather Reports


Display with metric or nautical units.
time (UTC)temp
F
wind
direction
speed
MPH
gust
MPH
rain 1hr
in
rain 24hr
in
rain mn
in
humidity
%
barometer
mb
20260831222004 81 48 7.0 12.0 0.00 0.97 0.06 85 1016.3
20260831221025 80 36 5.0 9.0 0.00 0.97 0.06 86 1016.0
20260831220004 80 34 4.0 9.0 0.00 0.97 0.06 86 1016.1
20260831215004 80 31 5.0 8.0 0.00 0.97 0.06 85 1016.2
20260831214004 80 26 5.0 10.0 0.00 0.97 0.06 85 1016.6
20260831213004 80 22 4.0 11.0 0.00 0.97 0.06 85 1016.5
20260831212004 80 28 6.0 10.0 0.00 0.97 0.06 85 1016.5
20260831211004 80 30 6.0 12.0 0.00 0.97 0.06 85 1016.4
20260831210004 81 31 8.0 12.0 0.00 0.97 0.06 85 1016.6
20260831205025 81 35 7.0 14.0 0.00 0.97 0.06 86 1016.7
20260831204004 81 39 9.0 16.0 0.00 0.97 0.06 85 1016.6
20260831203004 81 46 10.0 17.0 0.00 0.97 0.06 86 1016.5
20260831202004 80 46 10.0 15.0 0.01 0.97 0.06 88 1016.5
20260831201004 80 46 10.0 15.0 0.03 0.97 0.06 87 1016.8
20260831200004 81 49 11.0 17.0 0.03 0.97 0.06 88 1016.6
20260831195025 81 54 11.0 20.0 0.03 0.97 0.06 87 1016.7
20260831194004 81 55 8.0 18.0 0.03 0.97 0.06 85 1016.4
20260831193025 82 0 0.0 0.0 0.03 0.97 0.06 88 1016.2
20260831192004 85 0 0.0 0.0 0.02 0.96 0.05 83 1016.1
20260831191004 88 0 0.0 0.0 0.00 0.94 0.03 75 1016.1
20260831190004 92 0 0.0 0.0 0.00 0.94 0.03 70 1016.1
20260831185025 92 0 0.0 0.0 0.00 0.94 0.03 66 1015.9
20260831184004 91 0 0.0 0.0 0.00 0.94 0.03 64 1016.1
20260831183004 90 0 0.0 0.0 0.00 0.94 0.03 64 1016.2
20260831182004 90 0 0.0 0.0 0.00 0.94 0.03 68 1016.3
20260831181004 90 0 0.0 0.0 0.00 0.94 0.03 68 1016.4
20260831180004 90 0 0.0 0.0 0.00 0.94 0.03 68 1016.6
20260831175004 90 0 0.0 0.0 0.00 0.94 0.03 68 1016.6
20260831174004 90 0 0.0 0.0 0.00 0.94 0.03 70 1016.9
20260831173004 90 0 0.0 0.0 0.00 0.94 0.03 67 1017.2
20260831172025 89 0 0.0 0.0 0.00 0.94 0.03 71 1017.4
20260831171004 89 0 0.0 0.0 0.00 0.94 0.03 70 1017.3
20260831170004 89 0 0.0 0.0 0.00 0.94 0.03 70 1017.4
20260831165025 89 0 0.0 0.0 0.00 0.94 0.03 70 1017.5
20260831164004 89 0 0.0 0.0 0.00 0.94 0.03 73 1017.6
20260831163025 88 0 0.0 0.0 0.00 0.94 0.03 72 1017.7
20260831162004 88 0 0.0 0.0 0.00 0.94 0.03 72 1018.0
20260831161004 88 0 0.0 0.0 0.00 0.94 0.03 74 1018.1
20260831160025 89 0 0.0 0.0 0.00 0.94 0.03 73 1018.2
20260831155004 89 0 0.0 0.0 0.00 0.94 0.03 73 1018.3
20260831154004 87 0 0.0 0.0 0.00 0.94 0.03 76 1018.3
20260831153025 86 0 0.0 0.0 0.00 0.94 0.03 77 1018.3
20260831152004 86 0 0.0 0.0 0.00 0.94 0.03 76 1018.1
20260831151004 86 0 0.0 0.0 0.00 0.94 0.03 77 1018.1
20260831150004 86 0 0.0 0.0 0.00 0.94 0.03 80 1018.3
20260831145004 85 0 0.0 0.0 0.00 0.94 0.03 80 1018.2
20260831144004 84 0 0.0 0.0 0.00 0.94 0.03 81 1018.2
20260831143004 84 0 0.0 0.0 0.00 0.94 0.03 81 1018.2
20260831142005 84 0 0.0 0.0 0.00 0.94 0.03 83 1018.2
20260831141004 83 0 0.0 0.0 0.00 0.94 0.03 83 1018.0
20260831140004 82 0 0.0 0.0 0.00 0.94 0.03 84 1017.9
20260831135025 82 0 0.0 0.0 0.00 0.94 0.03 85 1017.9
20260831134004 82 0 0.0 0.0 0.00 0.94 0.03 85 1017.9
20260831133004 81 0 0.0 0.0 0.00 0.94 0.03 86 1017.9
20260831132004 80 0 0.0 0.0 0.00 0.94 0.03 87 1017.7
20260831131004 80 0 0.0 0.0 0.00 0.94 0.03 89 1017.6
20260831130005 79 0 0.0 0.0 0.00 0.94 0.03 90 1017.5
20260831125004 79 0 0.0 0.0 0.00 0.94 0.03 91 1017.5
20260831124004 78 0 0.0 0.0 0.00 0.94 0.03 92 1017.4
20260831123004 78 0 0.0 0.0 0.00 0.94 0.03 92 1017.5
20260831122004 78 0 0.0 0.0 0.00 0.94 0.03 93 1017.5
20260831121004 77 0 0.0 0.0 0.00 0.94 0.03 93 1017.3
20260831120004 77 0 0.0 0.0 0.00 0.94 0.03 94 1017.3
20260831115004 76 0 0.0 0.0 0.00 0.94 0.03 94 1017.1
20260831114004 76 0 0.0 0.0 0.00 0.94 0.03 94 1017.0
20260831113004 76 0 0.0 0.0 0.00 0.94 0.03 94 1016.7
20260831112004 76 0 0.0 0.0 0.00 0.94 0.03 94 1016.7
20260831111004 75 0 0.0 0.0 0.00 0.94 0.03 94 1016.6
20260831110004 75 0 0.0 0.0 0.00 0.94 0.03 94 1016.4
20260831105004 75 0 0.0 0.0 0.00 0.94 0.03 94 1016.3
20260831104004 75 0 0.0 0.0 0.00 0.94 0.03 94 1015.9
20260831103004 75 0 0.0 0.0 0.00 0.94 0.03 94 1015.8
20260831102004 75 0 0.0 0.0 0.00 0.94 0.03 94 1016.0
20260831101004 75 0 0.0 0.0 0.00 0.94 0.03 94 1016.0
20260831100004 75 0 0.0 0.0 0.00 0.94 0.03 93 1015.8
20260831095004 76 0 0.0 0.0 0.00 0.94 0.03 93 1015.9
20260831094004 76 0 0.0 0.0 0.00 0.94 0.03 93 1015.8
20260831093004 76 0 0.0 0.0 0.00 0.94 0.03 94 1015.9
20260831092004 76 0 0.0 0.0 0.00 0.94 0.03 94 1015.9
20260831091025 75 0 0.0 0.0 0.00 0.94 0.03 94 1015.9
20260831090004 75 0 0.0 0.0 0.00 0.94 0.03 94 1016.1
20260831085025 75 0 0.0 0.0 0.00 0.94 0.03 94 1015.9
20260831084025 75 0 0.0 0.0 0.00 0.94 0.03 94 1016.0
20260831083025 75 0 0.0 0.0 0.00 0.94 0.03 93 1016.2
20260831082004 75 0 0.0 0.0 0.00 0.94 0.03 93 1016.2
20260831081004 75 0 0.0 0.0 0.00 0.94 0.03 93 1016.2
20260831080025 76 0 0.0 0.0 0.00 0.94 0.03 93 1016.2
20260831075004 76 0 0.0 0.0 0.00 0.94 0.03 93 1016.3
20260831074004 76 0 0.0 0.0 0.00 0.94 0.03 93 1016.2
20260831073004 76 0 0.0 0.0 0.00 0.94 0.03 93 1016.3
20260831072004 76 0 0.0 0.0 0.00 0.94 0.03 93 1016.5
20260831071004 76 0 0.0 0.0 0.00 0.94 0.03 93 1016.4
20260831070004 76 0 0.0 0.0 0.01 0.94 0.03 93 1016.7
20260831065004 76 0 0.0 0.0 0.01 0.94 0.03 93 1016.6
20260831064004 77 0 0.0 0.0 0.01 0.94 0.03 93 1016.5
20260831063025 77 0 0.0 0.0 0.01 0.94 0.03 93 1016.7
20260831062004 77 0 0.0 0.0 0.01 0.94 0.03 93 1016.9
20260831061004 77 0 0.0 0.0 0.01 0.94 0.03 94 1016.9
20260831060004 77 0 0.0 0.0 0.00 0.93 0.02 94 1016.9
20260831055004 76 0 0.0 0.0 0.00 0.93 0.02 94 1016.8
20260831054004 76 0 0.0 0.0 0.00 0.94 0.02 94 1016.9
20260831053004 76 0 0.0 0.0 0.00 0.94 0.02 94 1017.2
20260831052025 76 0 0.0 0.0 0.00 0.94 0.02 94 1017.3
20260831051004 76 0 0.0 0.0 0.01 0.94 0.02 94 1017.2
20260831050004 76 0 0.0 0.0 0.02 0.94 0.02 94 1017.1
20260831045025 75 0 0.0 0.0 0.19 0.94 0.02 93 1017.4
20260831044003 75 0 0.0 0.0 0.25 0.94 0.02 93 1017.5
20260831043004 75 0 0.0 0.0 0.49 0.94 0.02 93 1017.7
20260831042004 75 0 0.0 0.0 0.55 0.94 0.02 93 1017.7
20260831041004 75 0 0.0 0.0 0.56 0.93 0.01 93 1017.8
20260831040004 75 0 0.0 0.0 0.55 0.92 0.00 93 1017.7
20260831035004 75 0 0.0 0.0 0.38 0.75 0.75 92 1017.9
20260831034004 75 0 0.0 0.0 0.32 0.69 0.69 92 1017.7
20260831033004 76 0 0.0 0.0 0.08 0.45 0.45 92 1018.1
20260831032004 76 0 0.0 0.0 0.03 0.39 0.39 91 1018.1
20260831031025 77 0 0.0 0.0 0.01 0.37 0.37 91 1018.1
20260831030004 77 0 0.0 0.0 0.01 0.37 0.37 92 1017.5
20260831025004 77 0 0.0 0.0 0.16 0.37 0.37 92 1017.7
20260831024004 77 0 0.0 0.0 0.36 0.37 0.37 91 1017.7
20260831023004 77 0 0.0 0.0 0.36 0.37 0.37 91 1017.6
20260831022003 77 0 0.0 0.0 0.35 0.36 0.36 91 1017.6
20260831021004 77 0 0.0 0.0 0.35 0.36 0.36 90 1017.6
20260831020004 78 0 0.0 0.0 0.35 0.36 0.36 89 1017.8
20260831015004 78 50 0.0 1.0 0.20 0.21 0.21 88 1017.8
20260831014004 79 0 0.0 0.0 0.00 0.01 0.01 87 1017.7
20260831013004 78 0 0.0 0.0 0.00 0.01 0.01 86 1017.7
20260831012003 78 0 0.0 0.0 0.00 0.01 0.01 86 1017.6
20260831011004 78 0 0.0 0.0 0.00 0.01 0.01 86 1017.7
20260831010004 78 0 0.0 0.0 0.00 0.01 0.01 86 1017.6
20260831005004 79 0 0.0 0.0 0.00 0.01 0.01 86 1017.6
20260831004025 79 0 0.0 0.0 0.00 0.01 0.01 86 1017.4
20260831003004 79 0 0.0 0.0 0.00 0.01 0.01 85 1017.3
20260831002024 79 0 0.0 0.0 0.00 0.01 0.01 84 1017.2
20260831001004 80 0 0.0 0.0 0.00 0.01 0.01 84 1017.1
20260831000004 80 0 0.0 0.0 0.00 0.01 0.01 83 1016.8
20260830235004 81 0 0.0 0.0 0.00 0.01 0.01 82 1016.9
20260830234003 81 0 0.0 0.0 0.00 0.02 0.01 82 1016.8
20260830233004 81 0 0.0 0.0 0.00 0.02 0.01 81 1016.7
20260830232003 82 0 0.0 0.0 0.00 0.02 0.01 81 1016.4
20260830231004 82 0 0.0 0.0 0.00 0.02 0.01 81 1016.2
20260830230004 82 0 0.0 0.0 0.00 0.02 0.01 80 1016.2
20260830225025 82 0 0.0 0.0 0.00 0.03 0.01 81 1016.4
20260830224004 82 0 0.0 0.0 0.00 0.03 0.01 81 1016.4
20260830223004 82 0 0.0 0.0 0.00 0.04 0.01 81 1016.5